Flag for U.S.A. Weather past 2 weeks in Ann Arbor, Michigan, U.S.A.

Now
75 °F

Mostly cloudy.


Feels Like: 77 °F
Forecast: 57 / 83 °F
Wind: 8 mph from South

Location: Ann Arbor Municipal Airport

Current Time: May 29, 2015 at 1:15:41 PM

Latest Report: May 29, 2015 at 12:53 PM


Visibility: 10 mi

Pressure: 30.11 "Hg

Humidity: 69%

Dew point: 64 °F

Location of Ann ArborLocation

Historic Weather in Ann Arbor — Graph

°F

Ann Arbor temperature yesterday

Maximum temperature yesterday: 76 °F (at 1:53 PM)
Minimum temperature yesterday: 49 °F (at 4:53 AM)
Average temperature yesterday: 64 °F

Past Weeks' High & Low Weather Summary

 TemperatureHumidityPressure
High82 °F (May 17, 3:53 PM)100% (May 17, 6:53 AM)30.44 "Hg (May 17, 6:53 AM)
Low33 °F (May 23, 4:53 AM)21% (May 23, 4:53 PM)29.85 "Hg (May 26, 5:53 PM)
Average63 °F69%30.09 "Hg
* Reported May 14 11:53 AM — May 29 11:53 AM, Ann Arbor, Weather by CustomWeather, © 2015

Note: Actual official high and low records may vary slightly from our data, if they occured in-between our weather recording intervals... More about our weather records

Advertising

Ann Arbor weather history for previous 24 hours

 ConditionsComfort  
Time TempWeatherWind HumidityBarometerVisibility
11:53 AM
Fri, May 29
75 °FPartly sunny.9 mph71%30.12 "Hg10 mi
10:53 AM76 °FBroken clouds.5 mph69%30.12 "Hg10 mi
9:53 AM73 °FSunny.8 mph71%30.12 "Hg10 mi
8:53 AM70 °FSunny.6 mph73%30.12 "Hg10 mi
7:53 AM66 °FSunny.3 mph78%30.13 "Hg10 mi
6:53 AM58 °FClear.No wind87%30.14 "Hg10 mi
5:53 AM58 °FPassing clouds.3 mph84%30.15 "Hg10 mi
4:53 AM62 °FPassing clouds.No wind73%30.15 "Hg10 mi
3:53 AM61 °FPartly cloudy.3 mph75%30.16 "Hg10 mi
2:53 AM59 °FPassing clouds.No wind78%30.16 "Hg10 mi
1:53 AM60 °FPassing clouds.No wind75%30.17 "Hg10 mi
12:53 AM61 °FClear.3 mph72%30.18 "Hg10 mi
11:53 PM
Thu, May 28
62 °FClear.3 mph73%30.19 "Hg10 mi
10:53 PM57 °FClear.3 mph83%30.20 "Hg10 mi
9:53 PM58 °FSunny.No wind81%30.19 "Hg10 mi
8:53 PM68 °FSunny.3 mph59%30.19 "Hg10 mi
7:53 PM72 °FSunny.6 mph53%30.20 "Hg10 mi
6:53 PM74 °FSunny.8 mph53%30.20 "Hg10 mi
5:53 PM76 °FSunny.6 mph52%30.21 "Hg10 mi
4:53 PM75 °FSunny.8 mph54%30.22 "Hg10 mi
3:53 PM75 °FSunny.6 mph54%30.22 "Hg10 mi
2:53 PM76 °FSunny.10 mph56%30.24 "Hg10 mi
1:53 PM76 °FSunny.8 mph58%30.25 "Hg10 mi
Weather by CustomWeather, © 2015

See weather overviewHow to use our weather pages